STARLINK-3231 (49744 NORAD) Tracking and Keplerian Element Data

This shows tracking and keplerian element data for the satellite.

Feedback or suggestion? Click here.




ElementValue
Catalog49744
NameSTARLINK-3231
Epoch Orbit130
Epoch Day140.58334491
Epoch Year2022
RAAN265.0724
Inclination53.2117
Eccentricity0.0002393
Argument of Perigee29.7722
Mean Anonmoly326.7019
Mean Motion15.08855559
Decay Rate-0.00041992
L11 49744U 21115W 22140.58334491 -.00041992 00000+0 -26345-2 0 9992
L22 49744 53.2117 265.0724 0002393 29.7722 326.7019 15.08855559 1304

Live tracking and technical data element details for STARLINK-3231 (NORAD 49744). STARLINK-3231 can be tracked NOW for your location showing map with azimuth and elevation plus other details from your city location.

Track the satellite on the map from your city or location and see movement details for azimuth, elevation, latitude, longitude, range, height, and movement on the map or in text.







IsCatalogInMostPopularTable: catalog: 49744, numindb: 21
Update: records affected: 1



GetName: 49744 STARLINK-3231

Hit Count: updated at: Sun, 22 May 2022 04:24:07 GMT